Location: Newark
(37.9717°N, 99.9089°W)
Time: 01:58:00
(UTC+00:00)

OTV 5 (USA 277) - Pass Details

Date: 27 August 2019
Orbit: 295 x 339 km, 54.5° (Epoch: 08 September)

Event Time Altitude Azimuth Distance (km) Brightness Sun altitude
Rises 01:56:14 0° 240° (WSW) 2,007 ? -8.0°
Reaches altitude 10° 01:58:15 10° 250° (WSW) 1,177 ? -8.4°
Maximum altitude 02:00:42 35° 320° (NW) 504 ? -8.9°
Drops below altitude 10° 02:03:08 10° 30° (NNE) 1,169 ? -9.3°
Sets 02:05:08 0° 39° (NE) 1,990 ? -9.7°
